This is the latest recevied weather packets stored in our database for station/object N5JXS. If no packets are shown the sender has not sent any weather packets the latest 10 day(s).
| Time | Temp. | Humidity | Pressure | Rain* | Wind** | Luminosity | Snow |
|---|---|---|---|---|---|---|---|
| 1777344602 | 2.22° C | 95% | 1017.6 hPa | 0 mm | - | 0 W/m² | - |
| 1777344299 | 2.22° C | 95% | 1017.7 hPa | 0 mm | - | 0 W/m² | - |
| 1777343997 | 2.78° C | 95% | 1017.6 hPa | 0 mm | - | 0 W/m² | - |
| 1777343694 | 3.33° C | 96% | 1017.9 hPa | 0 mm | - | 0 W/m² | - |
| 1777343391 | 3.33° C | 96% | 1017 hPa | 0 mm | - | 0 W/m² | - |
| 1777343090 | 2.78° C | 95% | 1016.4 hPa | 0 mm | - | 0 W/m² | - |
| 1777342786 | 2.78° C | 95% | 1015.9 hPa | 0 mm | - | 0 W/m² | - |
| 1777342483 | 2.78° C | 95% | 1015.9 hPa | 0 mm | - | 0 W/m² | - |
| 1777342179 | 2.78° C | 95% | 1016.1 hPa | 0 mm | - | 0 W/m² | - |
| 1777341876 | 3.33° C | 95% | 1016.1 hPa | 0 mm | - | 0 W/m² | - |
| 1777341572 | 3.33° C | 95% | 1016.1 hPa | 0 mm | - | 0 W/m² | - |
| 1777341268 | 3.33° C | 95% | 1016 hPa | 0 mm | - | 0 W/m² | - |
| 1777340965 | 3.33° C | 95% | 1016.5 hPa | 0 mm | - | 0 W/m² | - |
| 1777340664 | 3.33° C | 95% | 1016.5 hPa | 0 mm | - | 0 W/m² | - |
| 1777340361 | 3.33° C | 95% | 1016.1 hPa | 0 mm | - | 0 W/m² | - |
| 1777340057 | 3.33° C | 95% | 1016.3 hPa | 0 mm | - | 0 W/m² | - |
| 1777339755 | 3.33° C | 95% | 1016.1 hPa | 0 mm | - | 0 W/m² | - |
| 1777339453 | 3.33° C | 95% | 1016.1 hPa | 0 mm | - | 1 W/m² | - |
| 1777339150 | 3.33° C | 95% | 1016.3 hPa | 0 mm | - | 3 W/m² | - |
| 1777338848 | 3.89° C | 94% | 1016.4 hPa | 0 mm | - | 5 W/m² | - |
| 1777338545 | 3.89° C | 94% | 1016.4 hPa | 0 mm | - | 5 W/m² | - |
| 1777338242 | 3.89° C | 94% | 1016.4 hPa | 1.78 mm | - | 9 W/m² | - |
| 1777337937 | 3.89° C | 94% | 1016.1 hPa | 4.83 mm | - | 15 W/m² | - |
| 1777337635 | 3.89° C | 94% | 1016.4 hPa | 1.78 mm | - | 3 W/m² | - |
| 1777337332 | 3.89° C | 94% | 1016.3 hPa | 0 mm | - | 4 W/m² | - |
* Rain latest hour (hover to see other rain measurements)
** Current wind speed in m/s (hover to see current wind gust speed)